Weather History for Morristown, NJ

Change the Weather History Date:

Sunday, March 24, 2013

  Actual Average Record
Temperature  
Mean Temperature 37 °F -  
Max Temperature 46 °F 51 °F 87 °F (2005)
Min Temperature 28 °F 29 °F 14 °F (1940)
Degree Days  
Heating Degree Days 28    
Moisture  
Dew Point 20 °F    
Average Humidity 51    
Maximum Humidity 80    
Minimum Humidity 34    
Precipitation  
Precipitation 0.00 in - - ()
Sea Level Pressure  
Sea Level Pressure 29.87 in    
Wind  
Wind Speed 6 mph (NNW)    
Max Wind Speed 14 mph    
Max Gust Speed 18 mph    
Visibility 10 miles    
Events      
Averages and records for this station are not official NWS values.
T = Trace of Precipitation, MM = Missing Value Source: NWS Daily Summary

Daily Weather History Graph

Daily Weather History Graph

Search for Another Location

Airport:

Trip Planner

Search our weather history database for the weather conditions in past years. The results will help you decide how hot, cold, wet, or windy it might be!

Date:

Astronomy

Mar. 24, 2013 Rise Set
Actual Time 6:54 AM EDT 7:14 PM EDT
Civil Twilight 6:26 AM EDT 7:41 PM EDT
Nautical Twilight 5:54 AM EDT 8:13 PM EDT
Astronomical Twilight 5:21 AM EDT 8:46 PM EDT
Moon 4:39 PM EDT (3/24) 5:03 AM EDT (3/24)
Length of Visible Light 13h 15m
Length of Day
12h 20m
Waxing Gibbous, 91% of the Moon is Illuminated
Mar 24
Waxing Gibbous
Mar 27
Full
Apr 3
Last Quarter
Apr 10
New
Apr 18
First Quarter

Hourly Weather History & Observations

Time (EDT) Temp. Windchill Dew Point Humidity Pressure Visibility Wind Dir Wind Speed Gust Speed Precip Events Conditions
12:15 AM 39.2 °F 32.0 °F 17.6 °F 42% 29.94 in 10.0 mi NW 11.5 mph 17.3 mph N/A   Scattered Clouds
12:35 AM 37.4 °F 28.9 °F 17.6 °F 45% 29.95 in 10.0 mi NW 13.8 mph 18.4 mph N/A   Clear
12:55 AM 37.4 °F 29.8 °F 17.6 °F 45% 29.94 in 10.0 mi NNW 11.5 mph 17.3 mph N/A   Clear
1:15 AM 37.4 °F 32.8 °F 17.6 °F 45% 29.94 in 10.0 mi NNW 5.8 mph - N/A   Clear
1:35 AM 37.4 °F 34.9 °F 17.6 °F 45% 29.94 in 10.0 mi North 3.5 mph - N/A   Clear
1:55 AM 35.6 °F 31.7 °F 17.6 °F 48% 29.93 in 10.0 mi NNW 4.6 mph - N/A   Clear
2:15 AM 35.6 °F - 17.6 °F 48% 29.93 in 10.0 mi Calm Calm - N/A   Clear
2:35 AM 35.6 °F 31.7 °F 17.6 °F 48% 29.92 in 10.0 mi NW 4.6 mph - N/A   Clear
2:55 AM 33.8 °F - 17.6 °F 52% 29.90 in 10.0 mi Calm Calm - N/A   Clear
3:15 AM 32.0 °F - 19.4 °F 60% 29.91 in 10.0 mi Calm Calm - N/A   Clear
3:35 AM 32.0 °F - 21.2 °F 64% 29.92 in 10.0 mi Calm Calm - N/A   Clear
3:55 AM 30.2 °F - 21.2 °F 69% 29.92 in 10.0 mi Calm Calm - N/A   Clear
4:15 AM 30.2 °F - 19.4 °F 64% 29.92 in 10.0 mi Calm Calm - N/A   Clear
4:35 AM 28.4 °F - 21.2 °F 74% 29.92 in 10.0 mi Calm Calm - N/A   Clear
4:55 AM 28.4 °F - 23.0 °F 80% 29.93 in 10.0 mi Calm Calm - N/A   Clear
5:15 AM 30.2 °F 24.3 °F 21.2 °F 69% 29.93 in 10.0 mi WNW 5.8 mph - N/A   Clear
5:35 AM 32.0 °F 26.4 °F 19.4 °F 60% 29.93 in 10.0 mi West 5.8 mph - N/A   Clear
5:55 AM 32.0 °F 26.4 °F 19.4 °F 60% 29.93 in 10.0 mi West 5.8 mph - N/A   Clear
6:15 AM 32.0 °F 27.5 °F 19.4 °F 60% 29.93 in 10.0 mi West 4.6 mph - N/A   Clear
6:35 AM 32.0 °F 27.5 °F 17.6 °F 55% 29.93 in 10.0 mi West 4.6 mph - N/A   Clear
6:45 AM 32.0 °F 28.7 °F 19.4 °F 60% 29.94 in 10.0 mi WNW 3.5 mph - N/A   Clear
7:45 AM 33.8 °F 28.6 °F 19.4 °F 56% 29.96 in 20.0 mi NW 5.8 mph - N/A   Clear
8:45 AM 35.6 °F 28.6 °F 19.4 °F 52% 29.96 in 10.0 mi NW 9.2 mph - N/A   Clear
9:45 AM 39.2 °F 32.0 °F 19.4 °F 45% 29.94 in 10.0 mi North 11.5 mph 18.4 mph N/A   Partly Cloudy
10:45 AM 41.0 °F 36.4 °F 19.4 °F 42% 29.92 in 10.0 mi North 6.9 mph 17.3 mph N/A   Clear
11:45 AM 42.8 °F 38.6 °F 19.4 °F 39% 29.88 in 10.0 mi NNE 6.9 mph 18.4 mph N/A   Clear
12:45 PM 44.6 °F 39.7 °F 19.4 °F 37% 29.84 in 10.0 mi NNE 9.2 mph 17.3 mph N/A   Clear
1:45 PM 46.4 °F 42.9 °F 19.4 °F 34% 29.82 in 10.0 mi NE 6.9 mph - N/A   Clear
2:45 PM 44.6 °F 40.2 °F 19.4 °F 37% 29.76 in 10.0 mi North 8.1 mph 16.1 mph N/A   Clear
3:45 PM 46.4 °F 45.2 °F 19.4 °F 34% 29.74 in 10.0 mi NNE 3.5 mph - N/A   Clear
4:45 PM 46.4 °F 42.4 °F 19.4 °F 34% 29.73 in 10.0 mi NNE 8.1 mph - N/A   Overcast
5:45 PM 44.6 °F 40.7 °F 19.4 °F 37% 29.72 in 10.0 mi NE 6.9 mph - N/A   Overcast
6:45 PM 44.6 °F 40.7 °F 21.2 °F 39% 29.71 in 10.0 mi ENE 6.9 mph - N/A   Overcast
7:45 PM 42.8 °F 38.6 °F 21.2 °F 42% 29.75 in 10.0 mi East 6.9 mph - N/A   Overcast
8:45 PM 41.0 °F 38.0 °F 23.0 °F 49% 29.76 in 10.0 mi NE 4.6 mph - N/A   Overcast
9:45 PM 41.0 °F 38.0 °F 24.8 °F 53% 29.76 in 10.0 mi SSE 4.6 mph - N/A   Overcast
10:55 PM 41.0 °F - 26.6 °F 57% 29.74 in 10.0 mi Calm Calm - N/A   Clear
11:15 PM 39.2 °F - 26.6 °F 61% 29.73 in 10.0 mi Calm Calm - N/A   Clear
11:35 PM 39.2 °F - 26.6 °F 61% 29.72 in 10.0 mi Calm Calm - N/A   Clear
11:55 PM 41.0 °F - 24.8 °F 53% 29.71 in 10.0 mi Calm Calm - N/A   Clear